Flag for Finland Weather past 2 weeks in Rovaniemi, Finland

Now
52 °F

Partly sunny.


Feels Like: 47 °F
Forecast: 52 / 64 °F
Wind: 13 mph from Southwest

Location: Rovaniemi Airport

Current Time: Sep 3, 2014 at 8:30:43 AM

Latest Report: Sep 3, 2014 at 7:50 AM


Visibility: N/A

Pressure: 30.01 "Hg

Humidity: 100%

Dew point: 52 °F

Location of RovaniemiLocation

Historic Weather in Rovaniemi — Graph

°F

Rovaniemi temperature yesterday

Maximum temperature yesterday: 64 °F (at 5:20 PM)
Minimum temperature yesterday: 43 °F (at 3:20 AM)
Average temperature yesterday: 52 °F

Past Weeks' High & Low Weather Summary

 TemperatureHumidityPressure
High64 °F (Sep 2, 5:20 PM)100% (Aug 19, 7:20 AM)30.24 "Hg (Aug 19, 7:20 AM)
Low43 °F (Aug 29, 5:20 AM)51% (Aug 30, 2:50 PM)29.39 "Hg (Aug 19, 7:20 PM)
Average52 °F86%29.83 "Hg
* Reported Aug 19 7:20 AM — Sep 3 7:20 AM, Rovaniemi, Weather by CustomWeather, © 2014

Note: Actual official high and low records may vary slightly from our data, if they occured in-between our weather recording intervals... More about our weather records

Advertising

Rovaniemi weather history for previous 24 hours

 ConditionsComfort  
Time TempWeatherWind HumidityBarometerVisibility
7:20 AM
Sep 3
52 °FPartly sunny.9 mph100%30.04 "HgN/A
6:50 AM52 °FPartly cloudy.9 mph100%30.04 "HgN/A
6:20 AM52 °FPartly cloudy.8 mph100%30.01 "HgN/A
5:50 AM52 °FLow clouds.12 mph100%30.04 "Hg4 mi
5:20 AM52 °FFog.12 mph100%30.04 "Hg4 mi
4:50 AM52 °FMostly cloudy.12 mph100%30.04 "HgN/A
4:20 AM52 °FLow clouds.10 mph100%30.04 "HgN/A
3:50 AM52 °FMostly cloudy.12 mph94%30.04 "HgN/A
3:20 AM52 °FMostly cloudy.12 mph94%30.04 "HgN/A
2:50 AM52 °FPassing clouds.13 mph94%30.04 "HgN/A
2:20 AM52 °FClear.10 mph100%30.04 "Hg10 mi
1:50 AM52 °FClear.12 mph100%30.04 "Hg10 mi
1:20 AM52 °FClear.12 mph94%30.04 "Hg10 mi
12:50 AM52 °FClear.13 mph94%30.04 "Hg10 mi
12:20 AM52 °FClear.10 mph94%30.04 "Hg10 mi
11:50 PM
Sep 2
52 °FClear.13 mph94%30.07 "Hg10 mi
11:20 PM52 °FClear.14 mph94%30.07 "Hg10 mi
10:50 PM52 °FClear.10 mph88%30.07 "Hg10 mi
10:20 PM52 °FClear.12 mph88%30.07 "Hg10 mi
9:50 PM52 °FClear.14 mph88%30.07 "Hg10 mi
9:20 PM54 °FSunny.13 mph82%30.07 "Hg10 mi
8:50 PM55 °FSunny.12 mph82%30.07 "Hg10 mi
8:20 PM57 °FSunny.12 mph77%30.04 "Hg10 mi
7:50 PM59 °FSunny.13 mph77%30.04 "Hg10 mi
7:20 PM61 °FSunny.14 mph72%30.04 "Hg10 mi
6:50 PM63 °FSunny.12 mph68%30.04 "Hg10 mi
6:20 PM63 °FSunny.8 mph59%30.04 "Hg10 mi
5:50 PM64 °FSunny.10 mph56%30.04 "Hg10 mi
5:20 PM64 °FSunny.9 mph60%30.04 "Hg10 mi
4:20 PM63 °FPassing clouds.8 mph64%30.07 "HgN/A
3:50 PM63 °FSunny.9 mph59%30.07 "Hg10 mi
3:20 PM63 °FSunny.10 mph56%30.07 "Hg10 mi
2:50 PM63 °FPassing clouds.9 mph59%30.07 "HgN/A
2:20 PM59 °FSunny.7 mph72%30.07 "Hg10 mi
1:50 PM59 °FSunny.7 mph72%30.07 "Hg10 mi
1:20 PM57 °FPassing clouds.5 mph77%30.07 "HgN/A
12:50 PM55 °FPassing clouds.3 mph88%30.07 "HgN/A
12:20 PM52 °FPassing clouds.3 mph100%30.07 "HgN/A
11:50 AM50 °FScattered clouds.5 mph100%30.07 "HgN/A
11:20 AM50 °FCool.5 mph100%30.07 "Hg1 mi
10:50 AM48 °FFog.6 mph100%30.07 "Hg0 mi
10:20 AM48 °FFog.5 mph100%30.07 "Hg0 mi
9:50 AM48 °FFog.3 mph100%30.07 "Hg0 mi
9:20 AM46 °FFog.3 mph100%30.07 "Hg0 mi
8:50 AM46 °FFog.3 mph100%30.04 "Hg0 mi
8:20 AM46 °FFog.3 mph100%30.04 "Hg0 mi
Weather by CustomWeather, © 2014

See weather overviewHow to use our weather pages